GEFSMA_prec_meanprecacc_312.txt.gz
Total_Precipitation_Accumulation
1.51 1.40 1.36 1.52 1.53 1.66 1.71 1.81 1.86 1.71 1.53 1.37 1.37 1.37 1.46 1.45 1.40 1.37 1.68 2.03 2.46 3.14 3.45 3.37 3.19 2.99 2.95 2.93 2.77 2.69 2.61 2.46 2.64 3.04 3.63 3.88 3.59 3.06 2.73 2.44 2.20 1.95 2.00
1.34 1.36 1.26 1.34 1.44 1.65 1.90 2.00 1.83 1.73 1.62 1.56 1.59 1.54 1.54 1.50 1.45 1.33 1.47 1.62 1.65 2.03 2.65 3.24 3.45 3.31 3.22 3.17 2.95 2.84 2.73 2.55 2.58 2.76 2.83 2.94 2.99 2.70 2.43 2.37 2.20 1.99 2.15
1.15 1.25 1.31 1.31 1.37 1.63 1.93 2.14 2.01 1.89 1.70 1.68 1.69 1.65 1.58 1.57 1.49 1.42 1.51 1.66 1.53 1.54 1.99 2.71 3.36 3.57 3.38 3.28 3.06 2.90 2.66 2.42 2.33 2.42 2.51 2.46 2.61 2.60 2.41 2.32 2.20 2.10 2.11
1.16 1.25 1.36 1.32 1.35 1.60 1.88 2.14 2.21 2.20 2.10 2.00 1.90 1.79 1.70 1.83 1.67 1.55 1.61 1.75 1.84 1.68 1.74 2.15 2.69 3.18 3.34 3.40 3.07 2.74 2.48 2.26 2.18 2.13 2.21 2.08 2.22 2.41 2.41 2.32 2.32 2.39 2.34
1.20 1.31 1.53 1.56 1.57 1.75 1.86 1.89 2.07 2.13 2.21 2.16 1.91 1.86 1.78 1.91 2.00 1.90 1.96 2.06 2.09 2.00 1.88 1.84 2.05 2.30 2.85 3.22 3.17 2.93 2.71 2.37 2.18 2.05 2.16 2.02 2.00 2.27 2.39 2.26 2.31 2.45 2.46
1.42 1.38 1.56 1.62 1.68 1.93 1.99 2.03 2.27 2.27 2.21 2.27 2.02 1.89 1.87 1.88 1.93 2.14 2.29 2.30 2.27 2.06 2.01 1.88 1.98 1.93 2.32 2.78 2.93 2.90 2.76 2.71 2.59 2.37 2.40 2.28 2.09 2.21 2.36 2.22 2.28 2.36 2.47
1.51 1.55 1.62 1.68 1.73 1.86 1.92 2.03 2.39 2.45 2.30 2.15 2.34 2.34 2.24 2.04 1.96 2.04 2.19 2.42 2.49 2.26 2.17 2.17 2.08 1.98 1.91 2.12 2.30 2.57 2.67 2.94 3.06 2.85 2.66 2.45 2.23 2.36 2.48 2.33 2.36 2.36 2.37
1.45 1.40 1.63 1.80 1.78 1.94 2.00 2.15 2.46 2.72 2.46 2.26 2.64 3.12 2.87 2.57 2.20 1.97 2.02 2.09 2.34 2.32 2.16 2.04 1.95 1.94 1.90 1.89 1.74 1.99 2.35 2.86 3.30 3.12 2.71 2.56 2.40 2.32 2.43 2.36 2.35 2.31 2.31
1.71 1.66 1.78 1.96 1.93 2.01 2.12 2.16 2.25 2.77 2.94 2.67 2.60 3.21 3.09 2.83 2.77 2.22 1.81 1.72 2.00 2.21 2.22 2.07 1.98 2.05 2.05 2.06 1.84 1.68 1.91 2.34 3.00 3.06 2.78 2.77 2.68 2.45 2.28 2.20 2.19 2.30 2.41
1.96 1.84 1.89 1.99 2.05 2.14 2.12 1.94 2.09 2.60 3.13 3.18 2.92 2.69 2.53 2.46 2.64 2.55 1.99 1.64 1.71 1.91 2.14 2.03 2.00 2.10 2.16 2.23 2.15 1.81 1.63 1.83 2.41 3.00 3.17 3.07 2.95 2.72 2.49 2.32 2.24 2.27 2.28
2.00 1.86 1.83 1.99 2.11 2.19 2.17 2.20 2.34 2.63 2.97 3.26 3.21 2.94 2.65 2.41 1.99 2.16 2.20 1.98 1.69 1.60 1.70 1.84 1.99 2.05 2.10 2.10 2.17 1.98 1.61 1.47 1.77 2.44 3.06 3.21 3.09 2.97 2.83 2.76 2.78 2.71 2.54
1.87 1.82 1.83 1.89 1.91 2.00 2.09 2.25 2.48 2.62 2.80 3.03 3.10 2.79 2.64 2.54 2.30 2.11 1.94 2.02 1.98 1.67 1.52 1.53 1.64 1.83 1.90 1.99 1.89 1.93 1.65 1.40 1.41 1.60 2.04 2.58 2.81 2.94 3.01 3.08 3.04 2.90 2.85
1.65 1.66 1.72 1.75 1.70 1.73 1.87 2.04 2.25 2.28 2.39 2.61 2.73 2.62 2.46 2.28 2.21 2.25 2.18 2.06 1.90 1.63 1.49 1.34 1.42 1.56 1.56 1.74 1.92 1.90 1.62 1.50 1.34 1.28 1.35 1.60 2.00 2.36 2.70 3.04 3.17 3.13 3.09
1.44 1.40 1.43 1.51 1.53 1.55 1.62 1.80 1.95 1.93 1.98 2.18 2.24 2.31 2.23 2.12 2.12 2.11 2.13 2.26 2.12 1.88 1.52 1.19 1.24 1.41 1.37 1.45 1.78 1.85 1.46 1.39 1.25 1.18 1.19 1.26 1.41 1.68 2.05 2.38 2.69 2.89 2.96
1.20 1.16 1.22 1.35 1.46 1.46 1.46 1.62 1.75 1.70 1.76 1.89 2.03 2.19 2.12 2.05 2.03 2.04 2.10 2.20 2.26 2.12 1.83 1.35 1.19 1.17 1.20 1.30 1.63 1.52 1.38 1.37 1.23 1.16 1.09 1.07 1.14 1.26 1.43 1.68 1.89 2.07 2.18
1.11 1.11 1.14 1.16 1.19 1.24 1.31 1.50 1.67 1.72 1.71 1.77 1.84 1.95 2.09 2.08 2.06 2.04 2.11 2.15 2.13 2.12 1.97 1.53 1.26 1.14 1.23 1.18 1.40 1.17 1.28 1.47 1.24 1.07 1.02 0.99 1.01 1.10 1.21 1.38 1.42 1.39 1.38
0.90 0.89 0.89 0.95 1.08 1.10 1.12 1.32 1.41 1.43 1.56 1.65 1.62 1.65 1.81 1.93 2.04 2.04 2.06 2.06 2.11 2.07 1.93 1.67 1.33 1.18 1.32 1.34 1.39 1.19 1.16 1.21 1.13 1.09 1.02 0.95 0.92 0.98 1.00 1.12 1.24 1.15 1.06
0.67 0.72 0.78 0.78 0.96 1.12 1.16 1.21 1.22 1.22 1.36 1.46 1.48 1.54 1.58 1.59 1.70 1.82 1.94 1.92 1.99 2.02 1.98 1.87 1.57 1.35 1.35 1.45 1.62 1.57 1.42 1.30 1.28 1.38 1.32 1.15 1.04 1.03 1.05 1.08 1.18 1.14 0.95
0.59 0.65 0.75 0.75 0.80 0.94 1.06 1.09 1.09 1.10 1.15 1.21 1.25 1.32 1.35 1.44 1.58 1.59 1.66 1.74 1.81 1.86 1.97 1.92 1.81 1.69 1.54 1.48 1.57 1.56 1.59 1.69 1.61 1.58 1.61 1.43 1.26 1.16 1.12 1.14 1.18 1.18 1.06
0.63 0.64 0.62 0.66 0.71 0.81 0.93 0.97 0.97 0.97 0.99 1.00 1.11 1.18 1.23 1.29 1.39 1.45 1.47 1.61 1.74 1.82 1.85 1.82 1.76 1.69 1.64 1.60 1.61 1.62 1.69 1.82 1.88 1.72 1.65 1.55 1.51 1.40 1.27 1.21 1.18 1.19 1.20
0.46 0.49 0.47 0.49 0.54 0.64 0.71 0.73 0.80 0.87 0.93 0.95 1.04 1.06 1.09 1.09 1.14 1.20 1.20 1.38 1.54 1.71 1.79 1.81 1.72 1.61 1.55 1.56 1.56 1.59 1.67 1.89 1.94 1.94 1.88 1.71 1.57 1.39 1.32 1.27 1.22 1.22 1.24
0.34 0.37 0.39 0.44 0.46 0.49 0.61 0.63 0.64 0.73 0.82 0.88 0.94 0.97 1.05 1.09 1.05 1.01 0.99 1.06 1.19 1.31 1.51 1.63 1.66 1.59 1.51 1.49 1.60 1.73 1.73 1.87 1.98 1.88 1.77 1.83 1.71 1.59 1.42 1.29 1.34 1.35 1.29
0.37 0.38 0.40 0.46 0.42 0.40 0.48 0.46 0.58 0.75 0.76 0.76 0.77 0.91 1.01 1.05 1.09 1.08 0.99 0.98 0.97 1.00 1.12 1.29 1.42 1.44 1.44 1.47 1.59 1.71 1.79 1.86 1.76 1.80 1.76 1.85 1.78 1.63 1.43 1.40 1.48 1.37 1.32
0.38 0.43 0.43 0.47 0.42 0.34 0.40 0.43 0.52 0.63 0.67 0.65 0.68 0.80 0.95 1.06 1.11 1.14 1.09 1.13 1.07 0.94 0.93 1.00 1.18 1.28 1.32 1.50 1.69 1.86 1.98 1.98 1.86 1.80 1.76 1.81 1.70 1.54 1.38 1.35 1.48 1.36 1.26
0.36 0.41 0.49 0.47 0.40 0.33 0.37 0.44 0.55 0.64 0.70 0.70 0.69 0.75 0.92 1.00 1.16 1.21 1.13 1.20 1.18 0.97 0.90 0.99 1.04 1.13 1.27 1.44 1.66 1.89 1.97 1.98 1.96 1.83 1.64 1.53 1.45 1.48 1.47 1.38 1.36 1.35 1.24
0.37 0.39 0.42 0.41 0.36 0.37 0.41 0.43 0.52 0.54 0.64 0.71 0.74 0.76 0.98 1.05 1.15 1.12 1.07 1.25 1.34 1.16 0.90 0.90 0.99 1.12 1.23 1.39 1.65 1.82 2.05 2.06 1.88 1.79 1.60 1.45 1.44 1.55 1.71 1.54 1.33 1.22 1.15

GEFSMA_prec_meanprecacc_318.txt.gz
Total_Precipitation_Accumulation
1.51 1.40 1.36 1.52 1.53 1.67 1.74 1.86 1.95 1.83 1.62 1.44 1.42 1.41 1.49 1.48 1.44 1.44 1.78 2.17 2.63 3.32 3.62 3.52 3.32 3.11 3.06 3.03 2.88 2.81 2.71 2.55 2.70 3.08 3.69 3.94 3.67 3.17 2.82 2.54 2.28 2.02 2.06
1.34 1.36 1.26 1.34 1.44 1.65 1.91 2.03 1.88 1.81 1.68 1.62 1.63 1.57 1.57 1.52 1.47 1.36 1.51 1.71 1.76 2.15 2.80 3.39 3.58 3.43 3.33 3.26 3.02 2.91 2.79 2.60 2.62 2.82 2.89 3.01 3.06 2.81 2.55 2.47 2.26 2.04 2.19
1.15 1.25 1.31 1.31 1.37 1.63 1.94 2.16 2.03 1.91 1.73 1.71 1.71 1.67 1.60 1.58 1.50 1.43 1.53 1.69 1.57 1.60 2.06 2.79 3.46 3.66 3.47 3.36 3.11 2.94 2.71 2.47 2.40 2.49 2.59 2.56 2.71 2.72 2.55 2.41 2.26 2.15 2.15
1.16 1.26 1.36 1.32 1.35 1.60 1.89 2.16 2.22 2.21 2.11 2.02 1.93 1.81 1.71 1.84 1.68 1.56 1.63 1.77 1.88 1.72 1.78 2.20 2.76 3.27 3.42 3.47 3.12 2.79 2.54 2.33 2.25 2.21 2.35 2.26 2.41 2.57 2.52 2.38 2.36 2.42 2.37
1.20 1.31 1.53 1.56 1.57 1.75 1.86 1.90 2.08 2.13 2.21 2.17 1.92 1.88 1.79 1.91 2.01 1.90 1.98 2.07 2.10 2.01 1.89 1.86 2.09 2.36 2.94 3.31 3.23 2.98 2.79 2.44 2.24 2.12 2.26 2.14 2.12 2.36 2.45 2.29 2.34 2.47 2.48
1.42 1.38 1.56 1.62 1.68 1.94 1.99 2.03 2.28 2.28 2.21 2.27 2.02 1.90 1.88 1.89 1.93 2.15 2.30 2.32 2.28 2.07 2.03 1.90 2.01 1.97 2.39 2.85 3.01 2.99 2.83 2.75 2.63 2.43 2.47 2.35 2.15 2.26 2.40 2.24 2.29 2.38 2.50
1.51 1.55 1.62 1.68 1.73 1.86 1.92 2.03 2.40 2.46 2.30 2.15 2.34 2.34 2.24 2.04 1.96 2.05 2.19 2.43 2.51 2.29 2.18 2.19 2.10 2.01 1.96 2.18 2.37 2.63 2.71 2.98 3.10 2.91 2.72 2.50 2.26 2.38 2.50 2.34 2.38 2.37 2.39
1.45 1.40 1.63 1.80 1.79 1.95 2.00 2.15 2.46 2.72 2.46 2.26 2.64 3.12 2.87 2.57 2.21 1.97 2.03 2.10 2.35 2.34 2.18 2.06 1.97 1.97 1.93 1.93 1.79 2.02 2.38 2.89 3.35 3.17 2.76 2.60 2.43 2.34 2.45 2.38 2.37 2.32 2.33
1.71 1.66 1.78 1.96 1.93 2.01 2.12 2.16 2.25 2.77 2.94 2.67 2.60 3.21 3.09 2.83 2.77 2.22 1.82 1.73 2.01 2.22 2.23 2.10 2.01 2.07 2.07 2.08 1.86 1.70 1.92 2.36 3.05 3.11 2.83 2.81 2.72 2.48 2.30 2.22 2.21 2.32 2.42
1.97 1.84 1.89 2.00 2.05 2.14 2.12 1.94 2.09 2.60 3.13 3.18 2.93 2.69 2.53 2.46 2.64 2.56 1.99 1.65 1.71 1.91 2.16 2.06 2.06 2.15 2.19 2.25 2.17 1.82 1.64 1.85 2.44 3.03 3.21 3.13 3.00 2.76 2.52 2.34 2.26 2.29 2.29
2.01 1.86 1.83 2.00 2.11 2.19 2.17 2.20 2.34 2.63 2.97 3.26 3.22 2.94 2.65 2.41 1.99 2.16 2.21 1.98 1.69 1.61 1.72 1.87 2.04 2.11 2.15 2.13 2.19 2.00 1.62 1.49 1.81 2.47 3.08 3.25 3.14 3.01 2.87 2.79 2.79 2.72 2.56
1.87 1.83 1.84 1.90 1.91 2.00 2.10 2.25 2.48 2.62 2.81 3.03 3.10 2.79 2.64 2.54 2.31 2.12 1.95 2.03 1.99 1.68 1.54 1.56 1.69 1.89 1.97 2.05 1.93 1.96 1.67 1.42 1.43 1.62 2.05 2.59 2.83 2.98 3.06 3.12 3.07 2.92 2.86
1.65 1.66 1.72 1.75 1.71 1.73 1.87 2.04 2.26 2.28 2.40 2.61 2.73 2.63 2.47 2.28 2.21 2.25 2.19 2.06 1.91 1.64 1.51 1.36 1.45 1.61 1.63 1.81 1.97 1.96 1.66 1.53 1.37 1.30 1.37 1.61 2.02 2.39 2.75 3.10 3.22 3.16 3.12
1.44 1.40 1.43 1.51 1.53 1.55 1.62 1.80 1.95 1.93 1.98 2.18 2.24 2.31 2.23 2.12 2.12 2.11 2.14 2.27 2.13 1.89 1.54 1.21 1.27 1.45 1.42 1.51 1.83 1.90 1.51 1.43 1.27 1.20 1.21 1.27 1.43 1.71 2.09 2.45 2.75 2.94 3.00
1.20 1.17 1.22 1.35 1.46 1.46 1.47 1.63 1.75 1.70 1.76 1.90 2.03 2.19 2.13 2.06 2.03 2.04 2.11 2.21 2.27 2.14 1.84 1.37 1.21 1.20 1.24 1.32 1.67 1.55 1.41 1.41 1.27 1.18 1.10 1.09 1.15 1.28 1.46 1.73 1.96 2.14 2.23
1.12 1.12 1.14 1.16 1.20 1.25 1.31 1.50 1.67 1.72 1.71 1.77 1.84 1.96 2.09 2.08 2.07 2.05 2.12 2.15 2.14 2.13 1.99 1.56 1.28 1.16 1.26 1.20 1.42 1.20 1.30 1.50 1.28 1.11 1.04 1.00 1.02 1.12 1.23 1.40 1.46 1.43 1.43
0.90 0.90 0.89 0.95 1.08 1.10 1.13 1.32 1.42 1.43 1.56 1.65 1.62 1.66 1.82 1.93 2.04 2.05 2.06 2.07 2.11 2.08 1.94 1.69 1.35 1.19 1.33 1.36 1.40 1.21 1.18 1.23 1.16 1.12 1.05 0.98 0.94 1.00 1.02 1.14 1.26 1.17 1.08
0.69 0.73 0.78 0.78 0.96 1.13 1.17 1.22 1.23 1.22 1.36 1.46 1.48 1.54 1.58 1.60 1.70 1.83 1.95 1.93 1.99 2.03 1.99 1.88 1.58 1.36 1.37 1.46 1.63 1.59 1.44 1.33 1.31 1.41 1.34 1.18 1.07 1.06 1.08 1.10 1.20 1.16 0.96
0.61 0.67 0.77 0.77 0.81 0.95 1.07 1.09 1.09 1.11 1.16 1.22 1.25 1.32 1.35 1.45 1.59 1.60 1.67 1.75 1.82 1.86 1.97 1.93 1.82 1.71 1.56 1.50 1.59 1.57 1.60 1.72 1.64 1.61 1.64 1.45 1.29 1.20 1.16 1.17 1.20 1.20 1.07
0.65 0.66 0.64 0.68 0.73 0.82 0.94 0.97 0.98 0.98 0.99 1.00 1.11 1.18 1.24 1.30 1.40 1.46 1.48 1.61 1.74 1.82 1.85 1.83 1.77 1.70 1.65 1.62 1.62 1.62 1.70 1.84 1.91 1.75 1.68 1.57 1.53 1.43 1.31 1.25 1.20 1.21 1.21
0.49 0.52 0.50 0.52 0.56 0.65 0.72 0.75 0.80 0.88 0.93 0.95 1.04 1.06 1.10 1.11 1.16 1.22 1.21 1.39 1.54 1.72 1.79 1.82 1.73 1.62 1.56 1.58 1.58 1.59 1.68 1.90 1.97 1.96 1.90 1.74 1.60 1.42 1.35 1.30 1.24 1.24 1.26
0.38 0.41 0.43 0.46 0.49 0.51 0.62 0.65 0.65 0.73 0.83 0.88 0.95 0.98 1.06 1.10 1.06 1.02 1.00 1.07 1.20 1.32 1.51 1.64 1.68 1.60 1.52 1.50 1.62 1.74 1.73 1.88 2.01 1.90 1.79 1.84 1.73 1.61 1.45 1.31 1.36 1.37 1.31
0.42 0.42 0.44 0.48 0.44 0.42 0.50 0.47 0.59 0.76 0.77 0.77 0.78 0.91 1.02 1.06 1.10 1.10 0.99 0.98 0.98 1.01 1.13 1.31 1.44 1.45 1.45 1.48 1.60 1.72 1.80 1.87 1.79 1.83 1.79 1.88 1.80 1.64 1.44 1.41 1.50 1.38 1.33
0.43 0.48 0.48 0.50 0.44 0.36 0.42 0.44 0.53 0.64 0.68 0.65 0.69 0.81 0.96 1.07 1.13 1.15 1.09 1.14 1.08 0.95 0.94 1.01 1.18 1.29 1.33 1.51 1.70 1.87 1.99 1.99 1.88 1.83 1.78 1.83 1.72 1.55 1.39 1.36 1.49 1.37 1.27
0.40 0.46 0.53 0.52 0.43 0.35 0.39 0.45 0.56 0.65 0.71 0.70 0.70 0.76 0.93 1.01 1.17 1.23 1.15 1.21 1.19 0.97 0.90 1.00 1.04 1.14 1.28 1.45 1.67 1.89 1.98 1.99 1.97 1.85 1.65 1.54 1.45 1.48 1.47 1.38 1.36 1.36 1.25
0.41 0.44 0.48 0.46 0.41 0.39 0.43 0.45 0.53 0.55 0.65 0.72 0.75 0.77 1.00 1.07 1.17 1.15 1.08 1.26 1.35 1.16 0.91 0.90 0.99 1.12 1.24 1.40 1.66 1.83 2.06 2.08 1.90 1.81 1.62 1.46 1.44 1.55 1.72 1.55 1.33 1.23 1.16

GEFSMA_prec_meanprecacc_324.txt.gz
Total_Precipitation_Accumulation
1.52 1.41 1.36 1.54 1.60 1.82 1.93 2.07 2.08 1.93 1.69 1.47 1.45 1.45 1.54 1.54 1.53 1.55 1.90 2.34 2.86 3.60 3.92 3.76 3.53 3.33 3.28 3.24 3.07 3.00 2.91 2.69 2.80 3.15 3.75 3.99 3.72 3.22 2.89 2.62 2.39 2.12 2.14
1.35 1.37 1.27 1.35 1.49 1.75 2.04 2.16 1.99 1.91 1.75 1.66 1.66 1.61 1.61 1.56 1.52 1.43 1.62 1.87 1.96 2.35 2.97 3.55 3.76 3.63 3.52 3.44 3.18 3.04 2.91 2.68 2.67 2.87 2.94 3.06 3.11 2.84 2.59 2.56 2.36 2.12 2.26
1.15 1.25 1.31 1.32 1.40 1.70 2.03 2.26 2.13 2.01 1.81 1.77 1.76 1.71 1.64 1.61 1.52 1.45 1.57 1.76 1.64 1.67 2.16 2.91 3.59 3.79 3.59 3.50 3.23 3.04 2.80 2.54 2.45 2.53 2.64 2.62 2.76 2.77 2.63 2.55 2.37 2.23 2.22
1.16 1.26 1.37 1.32 1.36 1.63 1.94 2.22 2.28 2.27 2.18 2.08 1.97 1.84 1.74 1.87 1.70 1.58 1.65 1.80 1.90 1.74 1.82 2.25 2.83 3.35 3.52 3.59 3.22 2.88 2.61 2.38 2.28 2.24 2.40 2.32 2.48 2.67 2.69 2.59 2.51 2.51 2.42
1.20 1.31 1.53 1.56 1.57 1.76 1.88 1.92 2.10 2.16 2.25 2.20 1.95 1.91 1.82 1.94 2.02 1.92 1.99 2.09 2.11 2.02 1.89 1.87 2.11 2.39 2.99 3.37 3.29 3.05 2.85 2.48 2.27 2.16 2.31 2.20 2.19 2.46 2.60 2.47 2.49 2.56 2.53
1.42 1.38 1.56 1.62 1.68 1.94 2.00 2.04 2.29 2.30 2.23 2.28 2.04 1.92 1.90 1.90 1.94 2.15 2.31 2.32 2.29 2.08 2.03 1.90 2.02 1.99 2.42 2.90 3.08 3.06 2.88 2.79 2.67 2.47 2.54 2.42 2.21 2.33 2.48 2.34 2.39 2.44 2.54
1.51 1.55 1.62 1.69 1.73 1.86 1.93 2.04 2.40 2.47 2.31 2.16 2.35 2.35 2.25 2.05 1.96 2.05 2.20 2.43 2.51 2.29 2.18 2.19 2.11 2.02 1.97 2.20 2.42 2.70 2.77 3.01 3.13 2.95 2.77 2.56 2.32 2.43 2.55 2.40 2.43 2.42 2.42
1.45 1.40 1.64 1.81 1.79 1.95 2.00 2.16 2.46 2.73 2.47 2.27 2.65 3.14 2.88 2.58 2.21 1.98 2.03 2.10 2.35 2.35 2.19 2.06 1.98 1.97 1.93 1.95 1.83 2.08 2.44 2.94 3.39 3.20 2.80 2.64 2.47 2.38 2.50 2.43 2.41 2.36 2.35
1.71 1.66 1.78 1.96 1.94 2.01 2.13 2.17 2.26 2.78 2.95 2.68 2.60 3.22 3.10 2.84 2.78 2.23 1.82 1.73 2.02 2.23 2.25 2.11 2.02 2.07 2.08 2.10 1.89 1.74 1.98 2.41 3.09 3.15 2.87 2.85 2.76 2.51 2.33 2.26 2.25 2.35 2.44
1.97 1.84 1.89 2.00 2.05 2.15 2.13 1.95 2.10 2.61 3.14 3.19 2.93 2.69 2.54 2.47 2.64 2.56 2.00 1.65 1.72 1.92 2.16 2.07 2.07 2.15 2.19 2.26 2.20 1.87 1.68 1.89 2.47 3.06 3.25 3.18 3.07 2.81 2.55 2.36 2.29 2.32 2.32
2.01 1.86 1.83 2.00 2.11 2.19 2.17 2.21 2.34 2.64 2.97 3.27 3.23 2.94 2.66 2.41 1.99 2.16 2.21 1.99 1.70 1.61 1.72 1.88 2.05 2.12 2.16 2.14 2.21 2.03 1.68 1.53 1.85 2.50 3.12 3.30 3.19 3.06 2.92 2.81 2.82 2.75 2.58
1.87 1.83 1.84 1.90 1.92 2.00 2.10 2.25 2.49 2.63 2.81 3.04 3.12 2.79 2.64 2.55 2.31 2.12 1.95 2.04 1.99 1.69 1.54 1.56 1.69 1.89 1.99 2.09 1.95 1.97 1.71 1.48 1.49 1.67 2.09 2.63 2.87 3.02 3.12 3.17 3.10 2.94 2.89
1.65 1.66 1.72 1.75 1.71 1.73 1.87 2.04 2.26 2.29 2.40 2.62 2.74 2.64 2.47 2.29 2.21 2.25 2.19 2.07 1.92 1.64 1.51 1.37 1.46 1.61 1.64 1.85 2.03 1.99 1.69 1.57 1.42 1.36 1.41 1.64 2.04 2.42 2.80 3.16 3.27 3.20 3.16
1.44 1.40 1.44 1.51 1.54 1.55 1.63 1.81 1.95 1.93 1.99 2.18 2.24 2.32 2.23 2.13 2.12 2.11 2.14 2.28 2.13 1.90 1.54 1.22 1.28 1.45 1.43 1.54 1.88 1.95 1.55 1.46 1.31 1.24 1.24 1.29 1.44 1.73 2.12 2.50 2.81 3.00 3.06
1.20 1.17 1.23 1.35 1.46 1.46 1.47 1.63 1.76 1.70 1.77 1.90 2.04 2.19 2.13 2.06 2.03 2.04 2.11 2.21 2.27 2.15 1.85 1.38 1.22 1.21 1.25 1.34 1.70 1.59 1.47 1.46 1.31 1.22 1.13 1.11 1.17 1.29 1.48 1.76 2.00 2.19 2.27
1.12 1.12 1.14 1.17 1.20 1.25 1.32 1.51 1.68 1.73 1.71 1.77 1.84 1.96 2.09 2.08 2.07 2.05 2.12 2.15 2.14 2.14 2.00 1.57 1.29 1.18 1.28 1.23 1.45 1.23 1.34 1.53 1.31 1.14 1.07 1.03 1.04 1.13 1.25 1.42 1.49 1.47 1.46
0.92 0.90 0.90 0.96 1.09 1.11 1.13 1.32 1.42 1.43 1.56 1.66 1.62 1.66 1.82 1.94 2.05 2.05 2.07 2.07 2.12 2.08 1.95 1.71 1.36 1.21 1.35 1.39 1.43 1.24 1.20 1.25 1.18 1.15 1.08 1.00 0.96 1.02 1.04 1.16 1.29 1.20 1.11
0.70 0.73 0.79 0.78 0.97 1.13 1.17 1.22 1.23 1.23 1.37 1.47 1.48 1.54 1.59 1.60 1.71 1.83 1.96 1.93 2.00 2.04 2.00 1.89 1.59 1.38 1.39 1.48 1.66 1.61 1.46 1.34 1.32 1.42 1.37 1.21 1.09 1.07 1.10 1.13 1.24 1.19 1.00
0.63 0.68 0.77 0.77 0.81 0.95 1.07 1.10 1.10 1.11 1.16 1.22 1.25 1.33 1.36 1.45 1.60 1.60 1.68 1.76 1.83 1.87 1.98 1.94 1.83 1.72 1.58 1.51 1.60 1.58 1.61 1.72 1.64 1.62 1.65 1.48 1.32 1.22 1.17 1.19 1.23 1.23 1.10
0.67 0.67 0.64 0.69 0.74 0.83 0.95 0.98 0.99 0.98 0.99 1.00 1.12 1.19 1.24 1.30 1.41 1.47 1.49 1.63 1.75 1.83 1.86 1.84 1.78 1.72 1.67 1.63 1.63 1.63 1.70 1.84 1.92 1.76 1.69 1.59 1.56 1.45 1.33 1.26 1.23 1.24 1.25
0.51 0.54 0.51 0.52 0.57 0.66 0.72 0.75 0.81 0.88 0.94 0.95 1.05 1.07 1.11 1.11 1.17 1.23 1.23 1.41 1.56 1.73 1.80 1.83 1.74 1.64 1.58 1.59 1.58 1.60 1.69 1.91 1.97 1.97 1.92 1.76 1.63 1.44 1.37 1.32 1.26 1.28 1.30
0.41 0.43 0.44 0.47 0.50 0.52 0.63 0.65 0.65 0.73 0.83 0.88 0.95 0.99 1.07 1.11 1.07 1.03 1.01 1.08 1.21 1.33 1.52 1.65 1.69 1.61 1.53 1.51 1.62 1.75 1.75 1.89 2.02 1.92 1.80 1.87 1.76 1.64 1.47 1.33 1.39 1.40 1.35
0.45 0.45 0.45 0.49 0.45 0.43 0.51 0.48 0.60 0.76 0.78 0.77 0.78 0.92 1.02 1.06 1.11 1.11 1.00 0.99 0.98 1.01 1.14 1.32 1.45 1.46 1.46 1.49 1.60 1.73 1.82 1.89 1.80 1.85 1.81 1.90 1.83 1.68 1.46 1.42 1.51 1.40 1.36
0.45 0.50 0.50 0.51 0.45 0.37 0.43 0.45 0.54 0.65 0.68 0.66 0.69 0.81 0.96 1.07 1.13 1.16 1.10 1.14 1.08 0.95 0.94 1.01 1.19 1.30 1.34 1.52 1.71 1.88 2.01 2.01 1.89 1.84 1.81 1.87 1.75 1.59 1.41 1.37 1.50 1.38 1.29
0.42 0.48 0.55 0.53 0.43 0.35 0.40 0.47 0.57 0.65 0.72 0.71 0.70 0.76 0.93 1.01 1.18 1.24 1.16 1.23 1.20 0.98 0.91 1.00 1.05 1.15 1.29 1.46 1.68 1.90 1.99 2.01 2.00 1.87 1.67 1.57 1.49 1.52 1.50 1.39 1.37 1.37 1.26
0.43 0.46 0.49 0.48 0.42 0.40 0.44 0.46 0.55 0.57 0.66 0.73 0.75 0.77 1.00 1.07 1.18 1.16 1.09 1.27 1.36 1.18 0.92 0.91 0.99 1.13 1.24 1.41 1.67 1.84 2.08 2.10 1.94 1.86 1.65 1.49 1.49 1.59 1.75 1.56 1.34 1.24 1.17

GEFSMA_prec_meanprecacc_330.txt.gz
Total_Precipitation_Accumulation
1.55 1.43 1.39 1.58 1.67 1.95 2.11 2.25 2.17 2.00 1.75 1.51 1.49 1.48 1.57 1.57 1.58 1.61 1.98 2.43 2.99 3.83 4.22 4.03 3.76 3.59 3.61 3.53 3.29 3.20 3.09 2.82 2.90 3.23 3.82 4.08 3.81 3.29 2.94 2.66 2.44 2.18 2.23
1.37 1.39 1.29 1.38 1.56 1.86 2.18 2.31 2.07 1.99 1.82 1.70 1.69 1.63 1.63 1.59 1.59 1.50 1.69 1.96 2.07 2.50 3.18 3.72 3.93 3.80 3.75 3.75 3.40 3.22 3.05 2.79 2.76 2.93 3.00 3.14 3.19 2.92 2.65 2.61 2.41 2.18 2.33
1.16 1.26 1.33 1.34 1.46 1.79 2.13 2.38 2.22 2.07 1.86 1.80 1.78 1.73 1.66 1.66 1.60 1.53 1.64 1.84 1.74 1.81 2.31 3.04 3.70 3.90 3.70 3.62 3.35 3.15 2.88 2.60 2.50 2.58 2.70 2.68 2.83 2.84 2.69 2.61 2.43 2.29 2.28
1.17 1.26 1.38 1.34 1.40 1.70 2.03 2.31 2.36 2.33 2.22 2.11 2.00 1.87 1.77 1.91 1.75 1.63 1.70 1.85 1.95 1.78 1.88 2.33 2.90 3.43 3.62 3.70 3.31 2.96 2.69 2.44 2.34 2.30 2.46 2.37 2.54 2.73 2.76 2.65 2.58 2.59 2.51
1.20 1.31 1.54 1.57 1.59 1.80 1.94 2.00 2.17 2.22 2.29 2.24 1.98 1.94 1.85 1.97 2.05 1.95 2.03 2.11 2.13 2.04 1.91 1.90 2.14 2.43 3.05 3.44 3.36 3.11 2.91 2.54 2.33 2.22 2.38 2.25 2.24 2.52 2.67 2.56 2.62 2.69 2.64
1.43 1.38 1.57 1.63 1.69 1.95 2.03 2.10 2.35 2.36 2.29 2.33 2.08 1.94 1.91 1.92 1.96 2.17 2.33 2.33 2.30 2.10 2.05 1.92 2.04 2.03 2.46 2.94 3.12 3.09 2.91 2.84 2.73 2.53 2.60 2.48 2.26 2.37 2.55 2.49 2.56 2.59 2.66
1.51 1.55 1.63 1.69 1.74 1.87 1.94 2.06 2.44 2.51 2.35 2.20 2.38 2.37 2.26 2.06 1.98 2.06 2.21 2.44 2.52 2.30 2.19 2.20 2.12 2.03 1.98 2.21 2.43 2.71 2.78 3.05 3.18 3.00 2.82 2.62 2.37 2.47 2.59 2.47 2.52 2.50 2.49
1.45 1.41 1.64 1.81 1.79 1.95 2.01 2.16 2.47 2.74 2.49 2.29 2.68 3.16 2.90 2.59 2.22 1.99 2.04 2.12 2.36 2.36 2.20 2.07 1.98 1.97 1.94 1.95 1.83 2.08 2.46 2.98 3.44 3.27 2.87 2.71 2.53 2.43 2.53 2.48 2.47 2.41 2.41
1.71 1.66 1.78 1.96 1.94 2.02 2.13 2.17 2.26 2.79 2.96 2.69 2.63 3.25 3.13 2.86 2.79 2.24 1.84 1.74 2.03 2.24 2.26 2.12 2.02 2.07 2.08 2.10 1.90 1.74 1.99 2.45 3.14 3.22 2.95 2.93 2.83 2.56 2.37 2.29 2.29 2.39 2.49
1.97 1.84 1.89 2.00 2.06 2.16 2.13 1.96 2.11 2.62 3.16 3.20 2.95 2.71 2.56 2.48 2.65 2.57 2.00 1.66 1.73 1.93 2.17 2.08 2.07 2.16 2.20 2.26 2.20 1.87 1.69 1.92 2.52 3.12 3.32 3.23 3.12 2.84 2.57 2.39 2.31 2.35 2.35
2.01 1.87 1.84 2.00 2.12 2.19 2.18 2.21 2.35 2.64 2.98 3.29 3.24 2.96 2.67 2.42 2.00 2.17 2.22 1.99 1.70 1.61 1.73 1.88 2.06 2.13 2.17 2.15 2.21 2.04 1.68 1.55 1.90 2.56 3.17 3.35 3.23 3.09 2.95 2.84 2.84 2.77 2.61
1.88 1.84 1.85 1.90 1.92 2.01 2.10 2.26 2.49 2.63 2.82 3.06 3.14 2.81 2.66 2.56 2.32 2.12 1.96 2.04 2.00 1.69 1.55 1.56 1.70 1.90 2.00 2.09 1.95 1.98 1.72 1.50 1.54 1.74 2.15 2.68 2.91 3.06 3.16 3.20 3.12 2.97 2.92
1.66 1.67 1.73 1.75 1.71 1.73 1.87 2.04 2.26 2.29 2.41 2.63 2.76 2.65 2.48 2.30 2.22 2.26 2.20 2.08 1.92 1.65 1.52 1.37 1.46 1.62 1.64 1.86 2.04 1.99 1.69 1.59 1.46 1.42 1.50 1.72 2.10 2.46 2.84 3.21 3.32 3.24 3.19
1.46 1.41 1.44 1.51 1.54 1.56 1.63 1.81 1.96 1.93 1.99 2.19 2.25 2.32 2.24 2.14 2.13 2.11 2.14 2.28 2.14 1.90 1.55 1.23 1.28 1.46 1.43 1.55 1.89 1.96 1.56 1.47 1.34 1.27 1.29 1.36 1.50 1.78 2.17 2.55 2.86 3.05 3.11
1.22 1.18 1.23 1.36 1.46 1.47 1.47 1.63 1.76 1.71 1.77 1.90 2.05 2.20 2.13 2.07 2.04 2.04 2.11 2.21 2.28 2.15 1.86 1.38 1.22 1.22 1.26 1.35 1.71 1.60 1.48 1.47 1.34 1.25 1.16 1.14 1.21 1.34 1.52 1.80 2.05 2.23 2.33
1.14 1.13 1.16 1.18 1.21 1.25 1.32 1.51 1.68 1.73 1.72 1.78 1.85 1.97 2.10 2.08 2.08 2.05 2.12 2.15 2.15 2.14 2.01 1.57 1.30 1.19 1.29 1.24 1.47 1.24 1.36 1.57 1.36 1.21 1.12 1.08 1.09 1.18 1.29 1.47 1.53 1.50 1.49
0.95 0.92 0.91 0.96 1.09 1.11 1.14 1.33 1.43 1.43 1.57 1.67 1.63 1.67 1.83 1.94 2.05 2.06 2.07 2.08 2.12 2.09 1.96 1.72 1.37 1.23 1.36 1.42 1.46 1.26 1.22 1.28 1.22 1.20 1.12 1.03 0.99 1.04 1.07 1.20 1.33 1.24 1.15
0.78 0.79 0.81 0.79 0.97 1.14 1.18 1.23 1.24 1.23 1.38 1.48 1.49 1.55 1.59 1.60 1.71 1.84 1.96 1.93 2.01 2.04 2.01 1.90 1.60 1.40 1.42 1.52 1.69 1.63 1.48 1.36 1.34 1.44 1.39 1.23 1.11 1.09 1.12 1.15 1.28 1.22 1.03
0.67 0.73 0.83 0.80 0.82 0.96 1.08 1.11 1.11 1.12 1.17 1.23 1.26 1.33 1.36 1.46 1.60 1.61 1.68 1.77 1.84 1.88 1.99 1.95 1.83 1.74 1.61 1.55 1.64 1.61 1.63 1.74 1.65 1.62 1.67 1.50 1.33 1.23 1.18 1.20 1.25 1.27 1.14
0.68 0.68 0.67 0.72 0.76 0.84 0.96 0.99 1.00 0.99 1.00 1.01 1.13 1.20 1.25 1.31 1.42 1.48 1.50 1.64 1.77 1.84 1.87 1.85 1.79 1.73 1.69 1.67 1.66 1.65 1.72 1.85 1.93 1.77 1.72 1.61 1.57 1.46 1.34 1.27 1.24 1.28 1.29
0.53 0.55 0.53 0.54 0.59 0.68 0.74 0.76 0.82 0.89 0.94 0.96 1.06 1.08 1.11 1.12 1.18 1.24 1.24 1.42 1.57 1.75 1.81 1.84 1.75 1.65 1.60 1.62 1.61 1.62 1.70 1.92 1.98 1.98 1.95 1.78 1.64 1.45 1.38 1.33 1.28 1.31 1.35
0.43 0.45 0.45 0.49 0.52 0.53 0.66 0.67 0.66 0.74 0.84 0.89 0.96 1.00 1.08 1.11 1.08 1.04 1.02 1.09 1.22 1.34 1.53 1.66 1.69 1.62 1.54 1.53 1.65 1.77 1.77 1.91 2.04 1.93 1.84 1.90 1.79 1.67 1.49 1.35 1.40 1.43 1.40
0.48 0.47 0.47 0.51 0.47 0.45 0.54 0.50 0.61 0.77 0.78 0.78 0.79 0.94 1.04 1.07 1.12 1.11 1.01 1.00 0.99 1.02 1.14 1.33 1.45 1.46 1.46 1.50 1.62 1.75 1.84 1.91 1.83 1.87 1.84 1.93 1.86 1.70 1.48 1.43 1.52 1.42 1.40
0.48 0.53 0.52 0.53 0.46 0.38 0.45 0.48 0.57 0.67 0.69 0.67 0.71 0.83 0.99 1.09 1.14 1.17 1.11 1.15 1.09 0.96 0.95 1.03 1.20 1.31 1.35 1.53 1.71 1.89 2.02 2.03 1.92 1.86 1.83 1.89 1.77 1.60 1.42 1.38 1.52 1.41 1.33
0.45 0.51 0.57 0.55 0.44 0.36 0.41 0.48 0.59 0.68 0.74 0.72 0.72 0.78 0.95 1.04 1.20 1.25 1.16 1.23 1.21 0.99 0.93 1.02 1.07 1.17 1.30 1.47 1.69 1.91 2.01 2.04 2.03 1.90 1.70 1.60 1.52 1.56 1.52 1.41 1.39 1.39 1.29
0.45 0.48 0.52 0.50 0.43 0.41 0.44 0.47 0.56 0.58 0.69 0.75 0.78 0.79 1.01 1.09 1.21 1.18 1.10 1.29 1.38 1.20 0.94 0.93 1.01 1.15 1.26 1.42 1.68 1.85 2.10 2.12 1.96 1.88 1.67 1.53 1.52 1.64 1.78 1.59 1.37 1.27 1.20